sat.trackr.live / text

‹ back to catalog

TRANSPORTER-16 OBJECT AV

NORAD 68459 · 2026-067AV

PAYLOAD ACTIVE UNKNOWN

§ Identity

Operator
Country
TBD
Launch date
2026-03-30
Launch site
AFWTR
Launch vehicle
Mass (kg)
RCS (m²)

External: N2YO · Heavens-Above · Gunter

§ Orbital elements

Epoch: 2026-05-24T20:19:32.602368Z

Period
94.91 min
Inclination
97.4515°
Eccentricity
0.0007398
Mean motion
15.17160589 rev/d
Perigee alt
509.3 km
Apogee alt
519.5 km
Semi-major
6,892.6 km
B*
2.6952e-4
RAAN
103.5562°
Arg perigee
133.1107°
Mean anomaly
227.0746°
Rev number
839

§ Raw data

TRANSPORTER-16 OBJECT AV1 68459U 26067AV  26144.84690512  .00005287  00000+0  26952-3 0  99932 68459  97.4515 103.5562 0007398 133.1107 227.0746 15.17160589  8391

JSON: /api/v1/satellites/68459 · /tle

For live sub-satellite position, see the globe view (requires WebGL).

§ Visibility from observer

Set your observer location to see the next 7 days of passes ≥ 10°. The values pass through the URL so the page stays shareable.

No JS? Fill the form by hand. The geolocation button needs JavaScript.